| time (UTC) | temp F | wind direction | speed knots | gust knots | rain 1hr in | rain 24hr in | rain mn in | humidity % | barometer mb |
| 20260502210538 | 48 | 253 | 5.2 | 7.0 | 0.00 | 0.00 | 0.00 | 51 | 1015.1 |
| 20260502210036 | 48 | 273 | 2.6 | 4.3 | 0.00 | 0.00 | 0.00 | 49 | 1014.9 |
| 20260502205532 | 48 | 191 | 0.0 | 0.0 | 0.00 | 0.00 | 0.00 | 52 | 1015.0 |
| 20260502205030 | 48 | 237 | 2.6 | 2.6 | 0.00 | 0.00 | 0.00 | 52 | 1015.2 |
| 20260502204526 | 48 | 265 | 2.6 | 5.2 | 0.00 | 0.00 | 0.00 | 51 | 1015.0 |
| 20260502204024 | 48 | 204 | 3.5 | 5.2 | 0.00 | 0.00 | 0.00 | 47 | 1015.3 |
| 20260502203521 | 48 | 262 | 8.7 | 9.6 | 0.00 | 0.00 | 0.00 | 52 | 1015.1 |
| 20260502203018 | 48 | 269 | 1.7 | 2.6 | 0.00 | 0.00 | 0.00 | 54 | 1015.3 |
| 20260502202514 | 48 | 294 | 3.5 | 7.8 | 0.00 | 0.00 | 0.00 | 49 | 1015.3 |
| 20260502202013 | 48 | 107 | 0.9 | 0.9 | 0.00 | 0.00 | 0.00 | 49 | 1015.4 |
| 20260502201508 | 48 | 185 | 0.9 | 1.7 | 0.00 | 0.00 | 0.00 | 48 | 1015.4 |
| 20260502201004 | 48 | 212 | 2.6 | 2.6 | 0.00 | 0.00 | 0.00 | 50 | 1015.5 |
| 20260502200500 | 49 | 176 | 0.0 | 0.0 | 0.00 | 0.00 | 0.00 | 47 | 1015.4 |
| 20260502195958 | 48 | 222 | 2.6 | 2.6 | 0.00 | 0.00 | 0.00 | 51 | 1015.3 |
| 20260502195456 | 47 | 271 | 2.6 | 4.3 | 0.00 | 0.00 | 0.00 | 49 | 1015.6 |
| 20260502194951 | 48 | 241 | 3.5 | 4.3 | 0.00 | 0.00 | 0.00 | 50 | 1015.8 |
| 20260502194449 | 47 | 277 | 2.6 | 4.3 | 0.00 | 0.00 | 0.00 | 48 | 1015.9 |
| 20260502193944 | 48 | 211 | 2.6 | 2.6 | 0.00 | 0.00 | 0.00 | 48 | 1015.8 |
| 20260502193442 | 48 | 219 | 4.3 | 5.2 | 0.00 | 0.00 | 0.00 | 52 | 1015.8 |
| 20260502192937 | 47 | 224 | 2.6 | 2.6 | 0.00 | 0.00 | 0.00 | 54 | 1015.9 |
| 20260502192434 | 48 | 221 | 3.5 | 6.1 | 0.00 | 0.00 | 0.00 | 47 | 1016.3 |
| 20260502191931 | 48 | 301 | 0.9 | 1.7 | 0.00 | 0.00 | 0.00 | 46 | 1016.1 |
| 20260502191429 | 48 | 194 | 2.6 | 2.6 | 0.00 | 0.00 | 0.00 | 48 | 1016.1 |
| 20260502190927 | 47 | 251 | 0.9 | 0.9 | 0.00 | 0.00 | 0.00 | 49 | 1016.0 |
| 20260502190424 | 46 | 273 | 4.3 | 6.1 | 0.00 | 0.00 | 0.00 | 52 | 1016.2 |
| 20260502185920 | 46 | 265 | 7.8 | 9.6 | 0.00 | 0.00 | 0.00 | 52 | 1016.2 |
| 20260502185415 | 46 | 277 | 5.2 | 7.8 | 0.00 | 0.00 | 0.00 | 52 | 1016.3 |
| 20260502184913 | 46 | 197 | 0.9 | 1.7 | 0.00 | 0.00 | 0.00 | 51 | 1016.4 |
| 20260502184408 | 46 | 276 | 7.8 | 9.6 | 0.00 | 0.00 | 0.00 | 50 | 1016.4 |
| 20260502183905 | 46 | 275 | 7.0 | 8.7 | 0.00 | 0.00 | 0.00 | 52 | 1016.4 |
| 20260502183401 | 48 | 260 | 9.6 | 11.3 | 0.00 | 0.00 | 0.00 | 53 | 1016.4 |
| 20260502182856 | 46 | 259 | 3.5 | 5.2 | 0.00 | 0.00 | 0.00 | 52 | 1016.4 |
| 20260502182352 | 46 | 237 | 1.7 | 2.6 | 0.00 | 0.00 | 0.00 | 56 | 1016.7 |
| 20260502181848 | 46 | 254 | 7.8 | 11.3 | 0.00 | 0.00 | 0.00 | 50 | 1016.7 |
| 20260502181347 | 46 | 274 | 7.8 | 8.7 | 0.00 | 0.00 | 0.00 | 51 | 1016.7 |
| 20260502180845 | 48 | 209 | 1.7 | 2.6 | 0.00 | 0.00 | 0.00 | 49 | 1016.6 |
| 20260502180342 | 46 | 132 | 0.9 | 0.9 | 0.00 | 0.00 | 0.00 | 51 | 1016.6 |
| 20260502170300 | 44 | 275 | 6.1 | 7.0 | 0.00 | 0.00 | 0.00 | 55 | 1017.0 |
| 20260502164248 | 44 | 242 | 2.6 | 5.2 | 0.00 | 0.00 | 0.00 | 53 | 1017.4 |
| 20260502163744 | 45 | 282 | 7.0 | 7.8 | 0.00 | 0.00 | 0.00 | 53 | 1017.4 |
| 20260502163241 | 45 | 292 | 0.9 | 1.7 | 0.00 | 0.00 | 0.00 | 52 | 1017.1 |
| 20260502162738 | 44 | 313 | 4.3 | 6.1 | 0.00 | 0.00 | 0.00 | 54 | 1017.2 |
| 20260502162234 | 45 | 261 | 2.6 | 6.1 | 0.00 | 0.00 | 0.00 | 52 | 1017.0 |
| 20260502161731 | 45 | 209 | 0.9 | 1.7 | 0.00 | 0.00 | 0.00 | 52 | 1017.4 |
| 20260502161227 | 45 | 158 | 0.0 | 0.9 | 0.00 | 0.00 | 0.00 | 52 | 1017.1 |
| 20260502160726 | 45 | 141 | 0.0 | 0.9 | 0.00 | 0.00 | 0.00 | 54 | 1017.5 |
| 20260502160225 | 45 | 202 | 0.9 | 0.9 | 0.00 | 0.00 | 0.00 | 52 | 1017.1 |
| 20260502152149 | 45 | 260 | 4.3 | 6.1 | 0.00 | 0.00 | 0.00 | 51 | 1017.4 |
| 20260502151646 | 44 | 228 | 2.6 | 2.6 | 0.00 | 0.00 | 0.00 | 56 | 1017.5 |
| 20260502151143 | 44 | 205 | 0.9 | 0.9 | 0.00 | 0.00 | 0.00 | 53 | 1017.2 |
| 20260502150641 | 44 | 269 | 1.7 | 1.7 | 0.00 | 0.00 | 0.00 | 54 | 1017.0 |
| 20260502150137 | 44 | 210 | 0.9 | 0.9 | 0.00 | 0.00 | 0.00 | 53 | 1017.4 |
| 20260502130526 | 42 | 211 | 1.7 | 2.6 | 0.00 | 0.00 | 0.00 | 66 | 1017.5 |
| 20260502123509 | 37 | 199 | 0.0 | 0.9 | 0.00 | 0.00 | 0.00 | 77 | 1017.5 |
| 20260502123005 | 37 | 181 | 0.9 | 0.9 | 0.00 | 0.00 | 0.00 | 78 | 1017.6 |
| 20260502122501 | 37 | 187 | 0.0 | 0.9 | 0.00 | 0.00 | 0.00 | 79 | 1017.6 |
| 20260502121959 | 37 | 190 | 0.9 | 1.7 | 0.00 | 0.00 | 0.00 | 80 | 1017.7 |
| 20260502121456 | 36 | 193 | 0.9 | 0.9 | 0.00 | 0.00 | 0.00 | 81 | 1017.6 |
| 20260502120954 | 36 | 200 | 0.0 | 0.0 | 0.00 | 0.00 | 0.00 | 81 | 1017.7 |
| 20260502120450 | 35 | 187 | 0.0 | 0.0 | 0.00 | 0.00 | 0.00 | 82 | 1017.4 |
| 20260502115444 | 35 | 190 | 0.0 | 0.0 | 0.00 | 0.00 | 0.00 | 84 | 1017.6 |
| 20260502114940 | 34 | 199 | 0.0 | 0.0 | 0.00 | 0.00 | 0.00 | 85 | 1017.6 |
| 20260502114437 | 34 | 208 | 0.0 | 0.0 | 0.00 | 0.00 | 0.00 | 86 | 1017.5 |
| 20260502113935 | 34 | 199 | 0.9 | 0.9 | 0.00 | 0.00 | 0.00 | 87 | 1017.5 |
| 20260502113432 | 33 | 181 | 0.0 | 0.0 | 0.00 | 0.00 | 0.00 | 88 | 1017.6 |
| 20260502112931 | 33 | 182 | 0.0 | 0.0 | 0.00 | 0.00 | 0.00 | 88 | 1017.2 |
| 20260502112428 | 32 | 193 | 0.0 | 0.0 | 0.00 | 0.00 | 0.00 | 89 | 1017.4 |
| 20260502111925 | 32 | 193 | 0.0 | 0.0 | 0.00 | 0.00 | 0.00 | 89 | 1017.4 |
| 20260502111422 | 31 | 184 | 0.0 | 0.0 | 0.00 | 0.00 | 0.00 | 89 | 1017.2 |
| 20260502110919 | 31 | 178 | 0.0 | 0.0 | 0.00 | 0.00 | 0.00 | 88 | 1017.1 |
| 20260502110417 | 31 | 182 | 0.0 | 0.0 | 0.00 | 0.00 | 0.00 | 88 | 1017.4 |
| 20260502105914 | 31 | 176 | 0.0 | 0.0 | 0.00 | 0.00 | 0.00 | 88 | 1017.2 |
| 20260502105411 | 31 | 175 | 0.0 | 0.0 | 0.00 | 0.00 | 0.00 | 88 | 1017.0 |
| 20260502104909 | 31 | 185 | 0.0 | 0.0 | 0.00 | 0.00 | 0.00 | 87 | 1017.1 |
| 20260502104406 | 31 | 181 | 0.0 | 0.0 | 0.00 | 0.00 | 0.00 | 87 | 1017.0 |
| 20260502103903 | 31 | 188 | 0.0 | 0.0 | 0.00 | 0.00 | 0.00 | 87 | 1017.0 |
| 20260502103401 | 31 | 185 | 0.0 | 0.0 | 0.00 | 0.00 | 0.00 | 87 | 1017.0 |
| 20260502102858 | 32 | 179 | 0.0 | 0.0 | 0.00 | 0.00 | 0.00 | 87 | 1016.9 |
| 20260502102354 | 32 | 182 | 0.0 | 0.0 | 0.00 | 0.00 | 0.00 | 86 | 1017.1 |
| 20260502101852 | 32 | 188 | 0.0 | 0.0 | 0.00 | 0.00 | 0.00 | 86 | 1016.9 |
| 20260502101350 | 32 | 188 | 0.0 | 0.0 | 0.00 | 0.00 | 0.00 | 86 | 1017.0 |
| 20260502100848 | 32 | 186 | 0.0 | 0.0 | 0.00 | 0.00 | 0.00 | 86 | 1016.8 |
| 20260502100347 | 32 | 184 | 0.0 | 0.0 | 0.00 | 0.00 | 0.00 | 85 | 1016.8 |
| 20260502091321 | 33 | 184 | 0.0 | 0.0 | 0.00 | 0.00 | 0.00 | 81 | 1016.6 |
| 20260502090819 | 33 | 187 | 0.0 | 0.0 | 0.00 | 0.00 | 0.00 | 81 | 1016.7 |
| 20260502090315 | 34 | 185 | 0.0 | 0.0 | 0.00 | 0.00 | 0.00 | 80 | 1016.7 |
| 20260502071210 | 38 | 201 | 0.9 | 0.9 | 0.00 | 0.00 | 0.00 | 72 | 1016.3 |
| 20260502070708 | 38 | 204 | 0.0 | 0.0 | 0.00 | 0.00 | 0.00 | 70 | 1016.4 |
| 20260502070206 | 38 | 193 | 0.0 | 0.0 | 0.00 | 0.00 | 0.00 | 70 | 1016.3 |
| 20260502065704 | 39 | 185 | 0.0 | 0.0 | 0.00 | 0.00 | 0.00 | 70 | 1016.3 |
| 20260502065201 | 39 | 198 | 0.0 | 0.0 | 0.00 | 0.00 | 0.00 | 69 | 1016.1 |
| 20260502064700 | 39 | 194 | 0.0 | 0.0 | 0.00 | 0.00 | 0.00 | 69 | 1016.3 |
| 20260502064156 | 39 | 205 | 0.0 | 0.0 | 0.00 | 0.00 | 0.00 | 71 | 1016.4 |
| 20260502063655 | 39 | 196 | 0.0 | 0.0 | 0.00 | 0.00 | 0.00 | 69 | 1016.4 |
| 20260502063152 | 39 | 196 | 0.0 | 0.0 | 0.00 | 0.00 | 0.00 | 68 | 1016.7 |
| 20260502062649 | 39 | 206 | 0.0 | 0.0 | 0.00 | 0.00 | 0.00 | 69 | 1016.4 |
| 20260502062147 | 39 | 197 | 0.0 | 0.0 | 0.00 | 0.00 | 0.00 | 68 | 1016.6 |
| 20260502061645 | 39 | 189 | 0.0 | 0.0 | 0.00 | 0.00 | 0.00 | 68 | 1016.4 |
| 20260502061142 | 39 | 170 | 0.0 | 0.9 | 0.00 | 0.00 | 0.00 | 68 | 1016.6 |
| 20260502060642 | 39 | 230 | 0.0 | 0.9 | 0.00 | 0.00 | 0.00 | 68 | 1016.6 |
| 20260502060139 | 39 | 185 | 0.0 | 0.0 | 0.00 | 0.00 | 0.00 | 68 | 1016.3 |
| 20260502055637 | 40 | 158 | 0.0 | 0.9 | 0.00 | 0.00 | 0.00 | 68 | 1016.4 |
| 20260502055135 | 40 | 191 | 0.0 | 0.0 | 0.00 | 0.00 | 0.00 | 67 | 1016.6 |
| 20260502054634 | 40 | 194 | 0.0 | 0.0 | 0.00 | 0.00 | 0.00 | 68 | 1016.6 |
| 20260502054130 | 40 | 182 | 0.9 | 0.9 | 0.00 | 0.00 | 0.00 | 68 | 1016.6 |
| 20260502053628 | 40 | 190 | 0.0 | 0.0 | 0.00 | 0.00 | 0.00 | 67 | 1016.6 |
| 20260502053125 | 40 | 194 | 0.0 | 0.0 | 0.00 | 0.00 | 0.00 | 67 | 1016.4 |
| 20260502052623 | 40 | 191 | 0.0 | 0.0 | 0.00 | 0.00 | 0.00 | 67 | 1016.8 |
| 20260502052121 | 40 | 177 | 0.0 | 0.0 | 0.00 | 0.00 | 0.00 | 66 | 1016.5 |
| 20260502051619 | 40 | 168 | 0.9 | 0.9 | 0.00 | 0.00 | 0.00 | 66 | 1016.6 |
| 20260502051117 | 40 | 196 | 0.0 | 0.0 | 0.00 | 0.00 | 0.00 | 66 | 1016.6 |
| 20260502050613 | 40 | 189 | 0.0 | 0.0 | 0.00 | 0.00 | 0.00 | 66 | 1016.5 |
| 20260502050110 | 40 | 186 | 0.0 | 0.0 | 0.00 | 0.00 | 0.00 | 67 | 1016.5 |
| 20260502045606 | 40 | 203 | 0.0 | 0.0 | 0.00 | 0.00 | 0.00 | 65 | 1016.3 |
| 20260502045103 | 40 | 176 | 0.0 | 0.0 | 0.00 | 0.00 | 0.00 | 67 | 1016.4 |
| 20260502044559 | 40 | 181 | 0.0 | 0.0 | 0.00 | 0.00 | 0.00 | 65 | 1016.4 |
| 20260502044056 | 41 | 196 | 0.0 | 0.0 | 0.00 | 0.00 | 0.00 | 64 | 1016.2 |
| 20260502043554 | 41 | 185 | 0.0 | 0.0 | 0.00 | 0.00 | 0.00 | 65 | 1016.5 |
| 20260502043051 | 41 | 194 | 0.0 | 0.0 | 0.00 | 0.00 | 0.00 | 66 | 1016.3 |
| 20260502042551 | 41 | 189 | 0.0 | 0.0 | 0.00 | 0.00 | 0.00 | 64 | 1016.1 |
| 20260502042049 | 41 | 193 | 0.0 | 0.0 | 0.00 | 0.00 | 0.00 | 64 | 1016.2 |
| 20260502041546 | 41 | 192 | 0.0 | 0.0 | 0.00 | 0.00 | 0.00 | 65 | 1016.1 |
| 20260502041043 | 41 | 186 | 0.0 | 0.0 | 0.00 | 0.00 | 0.00 | 65 | 1016.3 |
| 20260502040539 | 41 | 186 | 0.0 | 0.0 | 0.00 | 0.00 | 0.00 | 64 | 1016.1 |
| 20260502040037 | 41 | 195 | 0.0 | 0.0 | 0.00 | 0.00 | 0.00 | 65 | 1016.1 |
| 20260502035532 | 41 | 188 | 0.0 | 0.0 | 0.00 | 0.00 | 0.00 | 64 | 1016.0 |
| 20260502035030 | 41 | 183 | 0.0 | 0.0 | 0.00 | 0.00 | 0.00 | 64 | 1016.1 |
| 20260502034528 | 41 | 190 | 0.0 | 0.0 | 0.00 | 0.00 | 0.00 | 64 | 1016.1 |
| 20260502034026 | 41 | 196 | 0.0 | 0.0 | 0.00 | 0.00 | 0.00 | 63 | 1016.1 |
| 20260502033524 | 41 | 183 | 0.0 | 0.0 | 0.00 | 0.00 | 0.00 | 65 | 1016.0 |
| 20260502033021 | 41 | 191 | 0.0 | 0.0 | 0.00 | 0.00 | 0.00 | 64 | 1016.0 |
| 20260502032517 | 41 | 190 | 0.0 | 0.0 | 0.00 | 0.00 | 0.00 | 64 | 1016.0 |
| 20260502032014 | 41 | 197 | 0.0 | 0.0 | 0.00 | 0.00 | 0.00 | 62 | 1015.9 |
| 20260502031512 | 41 | 188 | 0.0 | 0.0 | 0.00 | 0.00 | 0.00 | 63 | 1015.8 |
| 20260502031010 | 41 | 140 | 0.0 | 0.0 | 0.00 | 0.00 | 0.00 | 63 | 1015.9 |
| 20260502030508 | 41 | 182 | 0.0 | 0.0 | 0.00 | 0.00 | 0.00 | 63 | 1016.0 |
| 20260502030006 | 41 | 176 | 0.0 | 0.9 | 0.00 | 0.00 | 0.00 | 63 | 1015.9 |
| 20260502025503 | 42 | 192 | 0.0 | 0.0 | 0.00 | 0.00 | 0.00 | 62 | 1016.1 |
| 20260502025000 | 42 | 194 | 0.0 | 0.0 | 0.00 | 0.00 | 0.00 | 62 | 1015.9 |
| 20260502024458 | 42 | 184 | 0.0 | 0.0 | 0.00 | 0.00 | 0.00 | 62 | 1015.8 |
| 20260502023956 | 42 | 95 | 0.9 | 1.7 | 0.00 | 0.00 | 0.00 | 62 | 1015.7 |
| 20260502023453 | 42 | 65 | 1.7 | 1.7 | 0.00 | 0.00 | 0.00 | 63 | 1015.8 |
| 20260502022951 | 42 | 194 | 0.0 | 0.0 | 0.00 | 0.00 | 0.00 | 62 | 1015.6 |
| 20260502022447 | 42 | 198 | 0.0 | 0.0 | 0.00 | 0.00 | 0.00 | 63 | 1015.6 |
| 20260502021944 | 42 | 179 | 0.9 | 1.7 | 0.00 | 0.00 | 0.00 | 63 | 1016.0 |
| 20260502021442 | 42 | 149 | 0.9 | 0.9 | 0.00 | 0.00 | 0.00 | 62 | 1015.9 |
| 20260502020938 | 42 | 180 | 0.0 | 0.0 | 0.00 | 0.00 | 0.00 | 64 | 1015.6 |
| 20260502020436 | 42 | 201 | 0.0 | 0.9 | 0.00 | 0.00 | 0.00 | 62 | 1015.7 |
| 20260502015932 | 42 | 198 | 0.0 | 0.0 | 0.00 | 0.00 | 0.00 | 63 | 1015.3 |
| 20260502015431 | 42 | 128 | 0.0 | 0.9 | 0.00 | 0.00 | 0.00 | 62 | 1015.4 |
| 20260502014927 | 42 | 195 | 0.0 | 0.0 | 0.00 | 0.00 | 0.00 | 62 | 1015.4 |
| 20260502014424 | 43 | 190 | 0.0 | 0.0 | 0.00 | 0.00 | 0.00 | 63 | 1015.3 |
| 20260502013920 | 43 | 188 | 0.0 | 0.0 | 0.00 | 0.00 | 0.00 | 63 | 1015.4 |
| 20260502013416 | 43 | 54 | 1.7 | 4.3 | 0.00 | 0.00 | 0.00 | 61 | 1015.3 |
| 20260502012913 | 43 | 166 | 0.0 | 0.0 | 0.00 | 0.00 | 0.00 | 60 | 1015.2 |
| 20260502012411 | 43 | 208 | 0.0 | 0.0 | 0.00 | 0.00 | 0.00 | 62 | 1015.0 |
| 20260502011908 | 43 | 213 | 1.7 | 1.7 | 0.00 | 0.00 | 0.00 | 63 | 1014.9 |
| 20260502011404 | 43 | 216 | 0.9 | 0.9 | 0.00 | 0.00 | 0.00 | 63 | 1015.0 |
| 20260502010901 | 43 | 269 | 2.6 | 4.3 | 0.00 | 0.00 | 0.00 | 66 | 1015.0 |
| 20260502010357 | 43 | 199 | 0.0 | 0.9 | 0.00 | 0.00 | 0.00 | 67 | 1014.8 |
| 20260502005854 | 43 | 196 | 0.0 | 0.0 | 0.00 | 0.00 | 0.00 | 67 | 1015.0 |
| 20260502005352 | 43 | 200 | 0.0 | 0.0 | 0.00 | 0.00 | 0.00 | 67 | 1015.0 |
| 20260502004849 | 43 | 219 | 0.9 | 1.7 | 0.00 | 0.00 | 0.00 | 66 | 1014.9 |
| 20260502004345 | 44 | 209 | 0.9 | 0.9 | 0.00 | 0.00 | 0.00 | 66 | 1014.8 |
| 20260502003843 | 43 | 294 | 1.7 | 2.6 | 0.00 | 0.00 | 0.00 | 66 | 1014.8 |
| 20260502003340 | 44 | 210 | 0.9 | 1.7 | 0.00 | 0.00 | 0.00 | 66 | 1014.9 |
| 20260502002836 | 44 | 217 | 2.6 | 4.3 | 0.00 | 0.00 | 0.00 | 67 | 1015.0 |
| 20260502002334 | 44 | 204 | 0.0 | 0.9 | 0.00 | 0.00 | 0.00 | 65 | 1014.7 |
| 20260502001831 | 44 | 258 | 2.6 | 4.3 | 0.00 | 0.00 | 0.00 | 66 | 1015.0 |
| 20260502001328 | 44 | 222 | 2.6 | 2.6 | 0.00 | 0.00 | 0.00 | 66 | 1014.8 |
| 20260502000826 | 44 | 288 | 3.5 | 5.2 | 0.00 | 0.00 | 0.00 | 65 | 1014.7 |
| 20260502000325 | 44 | 214 | 0.0 | 0.0 | 0.00 | 0.00 | 0.00 | 66 | 1014.8 |
| 20260501235820 | 44 | 204 | 0.0 | 0.0 | 0.00 | 0.00 | 0.00 | 64 | 1014.9 |
| 20260501235315 | 44 | 223 | 1.7 | 2.6 | 0.00 | 0.00 | 0.00 | 66 | 1014.7 |
| 20260501234811 | 44 | 210 | 0.0 | 0.9 | 0.00 | 0.00 | 0.00 | 65 | 1014.8 |
| 20260501234308 | 44 | 202 | 0.0 | 0.0 | 0.00 | 0.00 | 0.00 | 66 | 1014.7 |
| 20260501233807 | 44 | 211 | 0.0 | 0.0 | 0.00 | 0.00 | 0.00 | 67 | 1014.7 |
| 20260501233304 | 44 | 244 | 0.0 | 0.0 | 0.00 | 0.00 | 0.00 | 66 | 1014.7 |
| 20260501232759 | 44 | 199 | 0.0 | 0.0 | 0.00 | 0.00 | 0.00 | 66 | 1014.7 |
| 20260501232256 | 44 | 222 | 0.9 | 0.9 | 0.00 | 0.00 | 0.00 | 66 | 1014.6 |
| 20260501231754 | 44 | 300 | 0.9 | 2.6 | 0.00 | 0.00 | 0.00 | 64 | 1014.6 |
| 20260501231252 | 44 | 250 | 0.0 | 0.9 | 0.00 | 0.00 | 0.00 | 65 | 1014.6 |
| 20260501230750 | 45 | 211 | 0.0 | 0.0 | 0.00 | 0.00 | 0.00 | 63 | 1014.6 |
| 20260501230248 | 44 | 200 | 0.0 | 0.9 | 0.00 | 0.00 | 0.00 | 61 | 1014.5 |
| 20260501225746 | 45 | 196 | 0.0 | 0.0 | 0.00 | 0.00 | 0.00 | 61 | 1014.3 |
| 20260501225243 | 45 | 207 | 0.9 | 0.9 | 0.00 | 0.00 | 0.00 | 62 | 1014.4 |
| 20260501224739 | 45 | 251 | 2.6 | 4.3 | 0.00 | 0.00 | 0.00 | 62 | 1014.5 |
| 20260501224237 | 45 | 201 | 0.9 | 1.7 | 0.00 | 0.00 | 0.00 | 60 | 1014.7 |
| 20260501223732 | 45 | 202 | 0.0 | 0.0 | 0.00 | 0.00 | 0.00 | 63 | 1014.4 |
| 20260501223229 | 45 | 234 | 0.9 | 0.9 | 0.00 | 0.00 | 0.00 | 64 | 1014.4 |
| 20260501222725 | 45 | 259 | 2.6 | 2.6 | 0.00 | 0.00 | 0.00 | 63 | 1014.6 |
| 20260501222223 | 45 | 222 | 0.9 | 0.9 | 0.00 | 0.00 | 0.00 | 66 | 1014.4 |
| 20260501221719 | 45 | 247 | 5.2 | 6.1 | 0.00 | 0.00 | 0.00 | 65 | 1014.2 |
| 20260501221216 | 45 | 240 | 3.5 | 4.3 | 0.00 | 0.00 | 0.00 | 65 | 1014.4 |
| 20260501220714 | 45 | 184 | 0.0 | 0.0 | 0.00 | 0.00 | 0.00 | 65 | 1014.3 |
| 20260501220211 | 45 | 199 | 0.0 | 0.9 | 0.00 | 0.00 | 0.00 | 67 | 1014.2 |
| 20260501215708 | 45 | 213 | 0.9 | 0.9 | 0.00 | 0.00 | 0.00 | 66 | 1014.3 |
| 20260501215203 | 45 | 53 | 1.7 | 4.3 | 0.00 | 0.00 | 0.00 | 65 | 1014.3 |
| 20260501214658 | 45 | 197 | 0.0 | 0.9 | 0.00 | 0.00 | 0.00 | 65 | 1014.3 |
| 20260501214155 | 45 | 188 | 0.0 | 0.0 | 0.00 | 0.00 | 0.00 | 67 | 1014.2 |
| 20260501213651 | 46 | 196 | 0.0 | 0.9 | 0.00 | 0.00 | 0.00 | 64 | 1014.3 |
| 20260501213147 | 45 | 303 | 0.9 | 1.7 | 0.00 | 0.00 | 0.00 | 65 | 1014.2 |
| 20260501212644 | 46 | 284 | 5.2 | 6.1 | 0.00 | 0.00 | 0.00 | 67 | 1014.0 |
| 20260501212141 | 46 | 277 | 6.1 | 7.0 | 0.00 | 0.00 | 0.00 | 64 | 1014.2 |
| 20260501211637 | 46 | 172 | 0.0 | 0.0 | 0.00 | 0.00 | 0.00 | 64 | 1014.1 |
| 20260501211135 | 45 | 271 | 2.6 | 2.6 | 0.00 | 0.00 | 0.00 | 66 | 1014.3 |